Find Local Weather

World > North America > United States > Arizona

Cave Creek, Arizona Regional Weather

Lat: 33.83N, Lon: 111.97W
Wx Zone: AZZ543
Feedback
Expires:201812181700;;985257
ASUS45 KPSR 181610
RWRAZ 

ARIZONA HOURLY REGIONAL WEATHER ROUNDUP
NATIONAL WEATHER SERVICE PHOENIX AZ
900 AM MST TUE DEC 18 2018

NOTE: FAIR INDICATES FEW OR NO CLOUDS BELOW 12,000 FEET WITH NO
SIGNIFICANT WEATHER AND/OR OBSTRUCTIONS TO VISIBILITY.


AZZ540-542>544-546-548-181700-
GREATER PHOENIX AREA
  
CITY           SKY/WX    TMP DP  RH WIND       PRES   REMARKS
PHOENIX        MOSUNNY   51  38  60 NW5       30.16R                  
GLENDALE       SUNNY     50  36  57 CALM      30.19R                  
LUKE AFB       SUNNY     51  37  58 CALM      30.16R                  
DEER VALLEY    SUNNY     51  37  58 CALM      30.17R                  
SCOTTSDALE     SUNNY     50  37  61 CALM      30.18R                  
MESA-FALCON    SUNNY     51  38  60 SE3       30.17R                  
MESA-GATEWAY   SUNNY     46  37  71 E6        30.18R                  
CHANDLER       SUNNY     52  41  66 CALM      30.17R                  
$$


SKY/WX - Weather  TMP - Temperature  DP - Dew Point  RH - Relative Humidity
WIND - Wind Direction/Speed PRES - Barometric Pressure